Lid_Strength_Index
10 10 9 9 9 8 8 8 8 8 8 8 7 7 7 6 5 5 3 3 3 3 3 4 5 4 5 5 6 7 7 8 9 7 10 11 13 13 13 12 12 12 11
11 11 11 11 11 11 11 10 10 10 9 9 9 8 8 7 7 7 6 5 5 5 5 5 5 5 6 5 6 7 7 7 8 9 8 14 13 13 13 14 13 13 12
12 12 12 12 12 12 12 12 12 11 11 10 10 10 9 8 8 7 6 6 6 6 6 6 6 6 6 6 6 6 8 8 8 9 9 14 14 14 14 14 14 14 13
12 12 12 12 12 12 12 12 12 12 12 12 11 11 10 10 9 9 8 7 7 7 6 6 6 6 6 6 7 7 8 9 9 10 10 12 15 15 14 16 16 15 15
13 13 13 13 13 13 13 13 13 13 12 12 12 12 12 12 11 10 10 10 10 9 8 7 7 7 8 7 7 8 8 10 10 11 11 14 15 16 16 15 16 15 15
14 14 14 14 14 14 14 14 14 14 14 14 14 14 13 12 11 10 10 10 10 10 9 8 8 10 9 8 7 7 7 10 11 10 11 12 13 14 15 16 15 17 18
14 15 15 15 15 15 15 15 15 15 14 14 14 14 14 13 12 11 10 11 10 9 9 9 9 10 10 9 9 8 8 8 8 10 11 11 11 13 14 15 15 16 16
14 15 15 15 15 16 16 16 16 15 16 15 15 14 14 13 11 10 10 10 10 10 9 9 9 9 9 10 10 10 10 10 10 9 9 10 11 12 13 13 14 14 15
15 15 15 16 16 17 17 17 16 16 16 16 15 15 15 13 11 10 10 10 10 10 9 9 9 9 9 8 9 10 10 11 9 8 8 9 10 10 12 13 14 15 17
16 16 16 16 17 18 17 17 16 16 16 16 15 14 14 14 12 10 10 10 11 11 10 10 10 9 9 8 9 10 11 11 11 12 12 11 10 11 11 12 14 15 16
17 17 17 16 17 17 17 16 17 17 16 16 15 13 14 13 13 11 10 10 11 11 10 10 10 9 9 9 8 9 10 10 11 11 12 12 12 12 12 12 12 13 15
18 17 16 15 14 14 17 16 17 18 17 15 13 12 13 13 13 11 10 9 9 10 10 10 10 9 9 9 9 8 8 10 11 12 12 13 13 13 13 12 13 13 13
19 20 19 18 16 14 14 15 15 14 14 13 13 13 13 13 13 11 10 9 9 9 10 10 9 9 9 9 9 8 10 11 12 12 13 13 13 13 14 16 16 16 17
22 21 20 19 18 17 13 12 13 14 15 14 14 13 14 13 13 13 11 10 9 9 10 11 10 9 9 9 9 9 10 11 12 12 13 14 13 14 15 16 17 17 18
23 21 21 19 18 17 16 14 13 12 13 13 12 12 12 11 12 9 8 9 10 9 11 12 11 10 9 10 10 11 10 11 12 13 13 14 14 14 15 15 16 17 17
25 22 21 20 19 18 17 16 12 10 9 8 7 8 8 8 7 7 7 7 7 8 12 12 12 11 11 10 11 11 11 11 12 12 13 13 14 14 15 15 16 16 17
26 24 23 22 20 20 19 17 16 12 9 8 8 8 7 6 7 6 6 7 7 9 12 11 12 11 11 11 10 10 12 12 11 11 12 12 12 13 14 15 15 15 16
26 25 24 22 21 19 18 16 14 13 14 13 10 9 8 7 6 6 6 7 10 11 12 13 13 12 12 12 12 12 13 13 13 12 12 12 12 13 14 14 15 15 15
25 23 22 21 20 18 16 15 13 13 14 14 13 11 11 9 10 11 11 13 14 15 16 16 16 16 16 15 15 15 15 15 14 14 14 14 14 14 15 14 15 16 16
24 22 20 19 17 16 14 13 13 13 14 14 13 14 13 15 17 18 18 18 18 18 18 18 18 18 18 18 17 16 16 17 17 17 17 17 17 16 17 17 16 17 17
23 21 19 17 16 15 14 13 14 14 15 17 17 13 14 19 20 20 21 21 21 20 20 20 21 21 20 19 18 18 19 19 19 19 19 19 19 19 18 17 18 18 18
20 20 18 18 17 17 16 16 16 17 17 18 19 18 16 19 20 21 22 22 22 22 22 22 23 24 23 23 22 20 20 21 21 21 20 21 20 20 20 20 19 20 20
21 20 19 19 18 17 18 18 18 19 20 20 20 20 21 21 22 22 23 24 24 24 24 24 24 24 25 25 24 23 22 23 24 25 22 22 22 22 23 22 22 23 22
22 20 20 20 19 20 20 20 20 20 21 21 21 22 22 23 24 24 25 25 25 25 25 25 25 25 27 28 28 29 29 29 29 28 27 25 25 27 26 26 25 26 24
23 22 21 22 21 21 21 21 21 22 22 22 23 23 24 24 25 26 26 26 27 26 26 27 28 30 31 32 32 32 31 29 30 31 30 28 27 28 28 26 26 25 25
24 22 22 22 23 23 23 22 23 23 24 24 25 26 26 26 26 26 27 29 29 29 30 31 31 32 31 30 30 29 28 23 26 29 28 26 26 27 27 26 28 24 24